�������l�o���
Date,Time,MP-1(��Sv/h),MP-2(��Sv/h),MP-3(��Sv/h),MP-4(��Sv/h),MP-5(��Sv/h),MP-6(��Sv/h),MP-7(��Sv/h),MP-8(��Sv/h),����,����(m/s),���J
2018/12/07,00:00,0.765,1.140,0.806,1.438,1.032,0.447,0.789,0.748,�k�k��,5.7,�L
2018/12/07,00:10,0.759,1.139,0.807,1.439,1.029,0.446,0.790,0.749,�k,5.6,��
2018/12/07,00:20,0.764,1.140,0.805,1.440,1.031,0.447,0.790,0.749,�k,5.5,��
2018/12/07,00:30,0.762,1.140,0.808,1.440,1.030,0.446,0.788,0.748,�k�k��,4.8,��
2018/12/07,00:40,0.763,1.139,0.806,1.440,1.030,0.446,0.791,0.748,�k,3.9,��
2018/12/07,00:50,0.762,1.141,0.806,1.440,1.029,0.446,0.789,0.748,�k,3.8,��
2018/12/07,01:00,0.763,1.139,0.804,1.441,1.031,0.446,0.788,0.750,�k�k��,3.1,��
2018/12/07,01:10,0.761,1.142,0.804,1.441,1.030,0.447,0.791,0.750,�k��,2.2,��
2018/12/07,01:20,0.761,1.141,0.805,1.440,1.029,0.446,0.791,0.749,�k,1.2,��
2018/12/07,01:30,0.762,1.140,0.806,1.438,1.030,0.445,0.789,0.749,��,0.6,��
2018/12/07,01:40,0.762,1.141,0.808,1.442,1.030,0.446,0.790,0.747,���쐼,1.7,��
2018/12/07,01:50,0.761,1.140,0.806,1.437,1.032,0.446,0.791,0.748,���쐼,1.7,��
2018/12/07,02:00,0.761,1.141,0.805,1.439,1.031,0.445,0.788,0.748,��,0.9,��
2018/12/07,02:10,0.762,1.141,0.806,1.439,1.032,0.446,0.790,0.749,�쐼,0.8,��
2018/12/07,02:20,0.763,1.140,0.806,1.438,1.030,0.445,0.791,0.748,��쐼,0.6,��
2018/12/07,02:30,0.760,1.140,0.805,1.439,1.030,0.446,0.789,0.748,�k�k��,1.2,��
2018/12/07,02:40,0.763,1.139,0.806,1.439,1.031,0.446,0.789,0.747,�k,2.3,��
2018/12/07,02:50,0.761,1.140,0.807,1.440,1.032,0.447,0.791,0.748,�k�k��,4.2,��
2018/12/07,03:00,0.761,1.142,0.806,1.438,1.030,0.446,0.789,0.749,�k�k��,4.7,��
2018/12/07,03:10,0.761,1.140,0.807,1.440,1.032,0.448,0.790,0.748,-,CALM,��
2018/12/07,03:20,0.762,1.141,0.806,1.440,1.031,0.446,0.790,0.749,�쓌,0.6,��
2018/12/07,03:30,0.763,1.139,0.807,1.441,1.031,0.446,0.789,0.748,��,1.1,��
2018/12/07,03:40,0.760,1.141,0.805,1.440,1.030,0.447,0.791,0.750,��쐼,1.9,��
2018/12/07,03:50,0.761,1.139,0.806,1.438,1.031,0.447,0.790,0.750,��쓌,3.9,��
2018/12/07,04:00,0.761,1.140,0.807,1.442,1.031,0.446,0.790,0.749,��,2.6,��
2018/12/07,04:10,0.762,1.139,0.805,1.439,1.033,0.447,0.793,0.749,�쐼,3.2,��
2018/12/07,04:20,0.762,1.142,0.807,1.439,1.032,0.449,0.793,0.748,��쐼,4.0,��
2018/12/07,04:30,0.762,1.140,0.807,1.442,1.033,0.447,0.791,0.748,�쐼,4.0,��
2018/12/07,04:40,0.763,1.140,0.804,1.441,1.034,0.448,0.789,0.750,�쐼,2.3,��
2018/12/07,04:50,0.763,1.139,0.806,1.441,1.034,0.449,0.789,0.749,��,0.8,��
2018/12/07,05:00,0.762,1.140,0.807,1.441,1.032,0.449,0.790,0.750,�k��,2.0,��
2018/12/07,05:10,0.762,1.143,0.806,1.441,1.032,0.446,0.791,0.751,�k�k��,3.3,��
2018/12/07,05:20,0.762,1.141,0.806,1.440,1.032,0.447,0.793,0.747,�k,2.5,��
2018/12/07,05:30,0.762,1.142,0.806,1.442,1.033,0.449,0.790,0.748,�k�k��,2.6,��
2018/12/07,05:40,0.761,1.141,0.807,1.442,1.033,0.447,0.791,0.749,�k�k��,1.9,��
2018/12/07,05:50,0.762,1.141,0.806,1.441,1.033,0.448,0.792,0.750,�k�k��,2.2,��
2018/12/07,06:00,0.763,1.143,0.807,1.440,1.033,0.449,0.791,0.748,�k�k��,2.0,��
2018/12/07,06:10,0.763,1.141,0.807,1.443,1.034,0.448,0.792,0.748,�k�k��,1.2,��
2018/12/07,06:20,0.764,1.143,0.805,1.446,1.033,0.447,0.790,0.747,�k��,2.2,��
2018/12/07,06:30,0.764,1.141,0.808,1.442,1.033,0.447,0.792,0.749,�k�k��,2.6,��
2018/12/07,06:40,0.763,1.140,0.807,1.442,1.031,0.447,0.789,0.749,�k��,2.6,��
2018/12/07,06:50,0.763,1.142,0.808,1.442,1.033,0.447,0.792,0.749,�k��,1.1,��
2018/12/07,07:00,0.763,1.142,0.806,1.440,1.031,0.448,0.791,0.750,�k��,1.4,��
2018/12/07,07:10,0.763,1.141,0.807,1.441,1.033,0.449,0.790,0.748,��쐼,0.9,��
2018/12/07,07:20,0.763,1.141,0.808,1.439,1.032,0.447,0.791,0.749,��,2.8,��
2018/12/07,07:30,0.763,1.142,0.807,1.445,1.033,0.447,0.788,0.748,��,1.2,��
2018/12/07,07:40,0.761,1.143,0.806,1.441,1.033,0.449,0.789,0.749,��쓌,1.1,��
2018/12/07,07:50,0.762,1.142,0.807,1.439,1.033,0.447,0.791,0.750,��쓌,0.9,��
2018/12/07,08:00,0.763,1.140,0.806,1.441,1.032,0.447,0.791,0.751,��쓌,1.1,��
2018/12/07,08:10,0.765,1.141,0.804,1.442,1.033,0.447,0.791,0.750,��쓌,1.2,��
2018/12/07,08:20,0.764,1.140,0.806,1.441,1.033,0.446,0.791,0.749,��쓌,2.0,��
2018/12/07,08:30,0.763,1.138,0.807,1.439,1.034,0.444,0.790,0.748,��쓌,2.5,��
2018/12/07,08:40,0.763,1.139,0.807,1.437,1.036,0.440,0.791,0.751,�쓌,1.9,��
2018/12/07,08:50,0.764,1.138,0.807,1.440,1.033,0.442,0.790,0.751,��쓌,3.4,��
2018/12/07,09:00,0.766,1.141,0.806,1.441,1.034,0.447,0.791,0.749,��쓌,3.8,��
2018/12/07,09:10,0.764,1.139,0.805,1.440,1.034,0.448,0.790,0.750,��쓌,2.8,��
2018/12/07,09:20,0.764,1.139,0.806,1.442,1.035,0.446,0.791,0.750,�쓌,2.3,��
2018/12/07,09:30,0.761,1.136,0.806,1.441,1.033,0.448,0.791,0.749,��쓌,1.9,��
2018/12/07,09:40,0.765,1.139,0.805,1.441,1.034,0.449,0.791,0.751,��쓌,2.6,��
2018/12/07,09:50,0.766,1.139,0.806,1.442,1.035,0.448,0.792,0.751,��쓌,3.7,��
2018/12/07,10:00,0.765,1.139,0.807,1.442,1.036,0.448,0.791,0.751,��쓌,4.2,��
2018/12/07,10:10,0.765,1.142,0.810,1.439,1.037,0.450,0.791,0.751,��,5.0,��
2018/12/07,10:20,0.766,1.139,0.808,1.442,1.035,0.449,0.792,0.753,��,3.6,��
2018/12/07,10:30,0.767,1.139,0.809,1.442,1.037,0.448,0.792,0.751,��,3.3,��
2018/12/07,10:40,0.766,1.144,0.807,1.443,1.036,0.451,0.791,0.750,��,3.2,��
2018/12/07,10:50,0.766,1.140,0.808,1.444,1.039,0.449,0.790,0.752,��쐼,2.9,��
2018/12/07,11:00,0.767,1.140,0.808,1.445,1.039,0.450,0.791,0.751,��쐼,1.9,��
2018/12/07,11:10,0.767,1.140,0.808,1.443,1.037,0.449,0.791,0.751,��,3.5,��
2018/12/07,11:20,-,1.143,0.809,1.446,1.039,0.449,0.794,0.752,��쓌,4.4,��
2018/12/07,11:30,-,1.144,0.809,1.444,1.038,0.451,0.792,0.751,��쓌,5.1,��
2018/12/07,11:40,-,1.145,0.809,1.442,1.039,0.450,0.792,0.751,��쓌,3.5,��
2018/12/07,11:50,-,1.143,0.808,1.447,1.036,0.450,0.792,0.750,��,3.0,��
2018/12/07,12:00,-,1.145,0.811,1.442,1.037,0.449,0.793,0.753,�쐼,1.7,��
2018/12/07,12:10,-,1.147,0.810,1.443,1.038,0.449,0.792,0.753,��,2.6,��
2018/12/07,12:20,-,1.147,0.812,1.443,1.037,0.449,0.792,0.752,�k�k��,0.9,��
2018/12/07,12:30,-,1.144,0.810,1.447,1.040,0.449,0.793,0.753,�k��,1.5,��
2018/12/07,12:40,-,1.145,0.812,1.447,1.040,0.450,0.791,0.753,-,CALM,��
2018/12/07,12:50,-,1.142,0.812,1.445,1.040,0.451,0.792,0.753,�쐼,2.9,��
2018/12/07,13:00,-,1.140,0.813,1.444,1.039,0.451,0.793,0.752,��,2.3,��
2018/12/07,13:10,-,1.143,0.810,1.444,1.038,0.450,0.792,0.753,��,8.4,��
2018/12/07,13:20,-,1.143,0.811,1.445,1.040,0.450,0.793,0.753,��,9.5,��
2018/12/07,13:30,-,1.143,0.811,1.448,1.039,0.449,0.795,0.753,��,7.2,��
2018/12/07,13:40,-,1.142,0.810,1.447,1.037,0.451,0.795,0.751,��,10.2,��
2018/12/07,13:50,-,1.140,0.813,1.448,1.037,0.451,0.795,0.751,��,11.8,��
2018/12/07,14:00,-,1.141,0.813,1.448,1.040,0.450,0.794,0.751,��,12.4,��
2018/12/07,14:10,-,1.143,0.813,1.449,1.041,0.450,0.794,0.751,��,11.3,��
2018/12/07,14:20,-,1.139,0.812,1.449,1.040,0.450,0.793,0.751,���k��,11.0,��
2018/12/07,14:30,-,1.141,0.812,1.453,1.040,0.452,0.794,0.749,��,11.4,��
2018/12/07,14:40,-,1.142,0.812,1.451,1.038,0.450,0.793,0.751,��,8.0,��
2018/12/07,14:50,0.771,1.143,0.812,1.449,1.042,0.451,0.794,0.752,��,6.9,��
2018/12/07,15:00,0.769,1.142,0.813,1.452,1.041,0.453,0.795,0.752,��,7.3,��
2018/12/07,15:10,0.772,1.146,0.813,1.453,1.043,0.454,0.793,0.752,���쐼,6.9,��
2018/12/07,15:20,0.769,1.147,0.813,1.452,1.042,0.454,0.793,0.754,��,7.7,��
2018/12/07,15:30,0.768,1.147,0.813,1.452,1.040,0.453,0.793,0.754,��,9.4,��
2018/12/07,15:40,0.771,1.146,0.813,1.454,1.042,0.453,0.793,0.755,��,8.3,��
2018/12/07,15:50,0.771,1.147,0.814,1.451,1.040,0.453,0.793,0.754,��,8.0,��
2018/12/07,16:00,0.770,1.150,0.814,1.455,1.042,0.452,0.795,0.753,��,6.9,��
2018/12/07,16:10,0.771,1.148,0.812,1.454,1.045,0.454,0.794,0.755,��,8.1,��
2018/12/07,16:20,0.771,1.151,0.812,1.456,1.043,0.452,0.793,0.755,��,9.2,��
2018/12/07,16:30,0.772,1.152,0.812,1.453,1.043,0.453,0.795,0.753,��,8.0,��
2018/12/07,16:40,0.770,1.152,0.813,1.455,1.047,0.454,0.792,0.756,���쐼,7.6,��
2018/12/07,16:50,0.770,1.153,0.811,1.454,1.044,0.452,0.795,0.754,��,9.2,��
2018/12/07,17:00,0.771,1.151,0.813,1.456,1.045,0.451,0.794,0.753,��,9.5,��
2018/12/07,17:10,0.771,1.151,0.813,1.456,1.045,0.452,0.794,0.752,��,8.1,��
2018/12/07,17:20,0.770,1.150,0.814,1.454,1.045,0.453,0.795,0.754,��,7.9,��
2018/12/07,17:30,0.771,1.151,0.813,1.457,1.044,0.452,0.795,0.751,���k��,8.8,��
2018/12/07,17:40,0.772,1.151,0.815,1.457,1.045,0.451,0.795,0.754,���k��,9.3,��
2018/12/07,17:50,0.770,1.153,0.813,1.449,1.045,0.452,0.794,0.753,��,8.4,��
2018/12/07,18:00,0.770,1.153,0.814,1.450,1.044,0.452,0.794,0.752,���k��,6.9,��
2018/12/07,18:10,0.773,1.150,0.815,1.450,1.046,0.453,0.794,0.754,���k��,10.2,��
2018/12/07,18:20,0.770,1.153,0.814,1.451,1.044,0.451,0.792,0.753,���k��,9.5,��
2018/12/07,18:30,0.772,1.154,0.814,1.457,1.044,0.453,0.794,0.753,���k��,8.4,��
2018/12/07,18:40,0.769,1.152,0.814,1.458,1.045,0.451,0.793,0.752,���k��,9.1,��
2018/12/07,18:50,0.770,1.154,0.816,1.459,1.045,0.451,0.793,0.751,���k��,9.4,��
2018/12/07,19:00,0.771,1.149,0.815,1.458,1.044,0.452,0.793,0.754,���k��,10.5,��
2018/12/07,19:10,0.768,1.152,0.813,1.456,1.044,0.451,0.793,0.752,���k��,9.9,��
2018/12/07,19:20,0.768,1.152,0.814,1.460,1.046,0.452,0.794,0.752,���k��,8.9,��
2018/12/07,19:30,0.771,1.153,0.814,1.459,1.042,0.452,0.793,0.754,���k��,8.1,��
2018/12/07,19:40,0.769,1.152,0.814,1.460,1.042,0.452,0.795,0.752,��,8.4,��
2018/12/07,19:50,0.768,1.151,0.813,1.456,1.044,0.452,0.795,0.752,���k��,5.7,��
2018/12/07,20:00,0.771,1.152,0.813,1.458,1.046,0.451,0.794,0.751,���k��,7.7,��
2018/12/07,20:10,0.770,1.154,0.816,1.457,1.043,0.452,0.795,0.753,���k��,8.8,��
2018/12/07,20:20,0.770,1.152,0.814,1.459,1.046,0.449,0.795,0.753,��,6.5,��
2018/12/07,20:30,0.767,1.154,0.813,1.460,1.046,0.451,0.796,0.753,���k��,7.9,��
2018/12/07,20:40,0.769,1.153,0.814,1.457,1.044,0.451,0.794,0.752,���k��,8.2,��
2018/12/07,20:50,0.768,1.154,0.815,1.460,1.043,0.451,0.794,0.752,���k��,7.3,��
2018/12/07,21:00,0.769,1.152,0.816,1.460,1.045,0.452,0.796,0.752,���k��,8.4,��
2018/12/07,21:10,0.770,1.151,0.815,1.459,1.044,0.451,0.795,0.753,���k��,8.1,��
2018/12/07,21:20,0.768,1.151,0.813,1.460,1.044,0.450,0.795,0.752,���k��,6.5,��
2018/12/07,21:30,0.770,1.153,0.812,1.459,1.044,0.451,0.796,0.752,���k��,7.2,��
2018/12/07,21:40,0.769,1.151,0.815,1.461,1.046,0.450,0.797,0.754,���k��,8.4,��
2018/12/07,21:50,0.769,1.153,0.816,1.462,1.045,0.450,0.797,0.754,���k��,8.5,��
2018/12/07,22:00,0.768,1.154,0.815,1.460,1.044,0.450,0.796,0.752,���k��,8.6,��
2018/12/07,22:10,0.768,1.152,0.813,1.458,1.043,0.450,0.797,0.754,�k��,11.3,��
2018/12/07,22:20,0.768,1.157,0.814,1.458,1.043,0.451,0.796,0.754,�k��,11.6,��
2018/12/07,22:30,0.770,1.152,0.814,1.459,1.045,0.451,0.795,0.753,�k��,10.2,��
2018/12/07,22:40,0.767,1.156,0.814,1.463,1.043,0.451,0.795,0.752,�k�k��,10.3,��
2018/12/07,22:50,0.768,1.153,0.815,1.459,1.043,0.451,0.796,0.752,�k�k��,11.6,��
2018/12/07,23:00,0.768,1.154,0.815,1.460,1.044,0.451,0.796,0.754,�k�k��,10.6,��
2018/12/07,23:10,0.769,1.155,0.813,1.462,1.044,0.451,0.795,0.753,�k�k��,11.6,��
2018/12/07,23:20,0.771,1.154,0.813,1.461,1.047,0.449,0.795,0.754,�k��,9.2,��
2018/12/07,23:30,0.769,1.152,0.813,1.462,1.044,0.451,0.796,0.754,�k�k��,10.3,��
2018/12/07,23:40,0.770,1.154,0.816,1.459,1.046,0.450,0.796,0.755,�k�k��,12.7,��
2018/12/07,23:50,0.770,1.150,0.814,1.455,1.045,0.449,0.796,0.754,�k�k��,9.0,��
